This is the latest recevied weather packets stored in our database for station/object KN6WGU. If no packets are shown the sender has not sent any weather packets the latest 10 day(s).
| Time | Temp. | Humidity | Pressure | Rain* | Wind** | Luminosity | Snow |
|---|---|---|---|---|---|---|---|
| 1787803309 | 20.56° C | 89% | 1006.1 hPa | 0 mm | - | 0 W/m² | - |
| 1787803004 | 21.11° C | 87% | 1005.8 hPa | 0 mm | - | 0 W/m² | - |
| 1787802702 | 21.11° C | 85% | 1005.7 hPa | 6.1 mm | - | 0 W/m² | - |
| 1787802402 | 21.67° C | 81% | 1005.9 hPa | 6.1 mm | - | 0 W/m² | - |
| 1787802096 | 22.22° C | 77% | 1006 hPa | 1.27 mm | - | 0 W/m² | - |
| 1787801792 | 22.22° C | 79% | 1005.7 hPa | 0 mm | - | 0 W/m² | - |
| 1787801487 | 22.22° C | 77% | 1005.4 hPa | 0 mm | - | 0 W/m² | - |
| 1787801181 | 22.22° C | 77% | 1005.5 hPa | 0 mm | - | 0 W/m² | - |
| 1787800880 | 22.22° C | 77% | 1005.5 hPa | 0 mm | - | 0 W/m² | - |
| 1787800576 | 22.22° C | 76% | 1005.4 hPa | 0 mm | - | 0 W/m² | - |
| 1787800274 | 22.22° C | 76% | 1005.5 hPa | 0 mm | - | 0 W/m² | - |
| 1787799970 | 22.78° C | 75% | 1005.5 hPa | 0 mm | - | 0 W/m² | - |
| 1787799669 | 22.78° C | 75% | 1005.5 hPa | 0 mm | - | 0 W/m² | - |
| 1787799366 | 22.78° C | 72% | 1005.6 hPa | 0 mm | - | 0 W/m² | - |
| 1787799065 | 23.33° C | 71% | 1005.6 hPa | 0 mm | - | 0 W/m² | - |
| 1787798764 | 22.78° C | 71% | 1005.7 hPa | 0 mm | - | 0 W/m² | - |
| 1787798460 | 22.78° C | 71% | 1005.6 hPa | 0 mm | - | 0 W/m² | - |
| 1787798155 | 22.78° C | 71% | 1005.6 hPa | 0 mm | - | 0 W/m² | - |
| 1787797854 | 22.78° C | 71% | 1005.6 hPa | 0 mm | - | 0 W/m² | - |
| 1787797549 | 22.78° C | 71% | 1005.6 hPa | 0 mm | - | 0 W/m² | - |
| 1787797243 | 22.78° C | 71% | 1005.6 hPa | 0 mm | - | 0 W/m² | - |
| 1787796939 | 22.78° C | 71% | 1005.7 hPa | 0 mm | - | 0 W/m² | - |
| 1787796633 | 22.78° C | 71% | 1005.7 hPa | 0 mm | - | 0 W/m² | - |
| 1787796328 | 22.78° C | 71% | 1005.9 hPa | 0 mm | - | 0 W/m² | - |
| 1787796023 | 22.78° C | 71% | 1005.8 hPa | 0 mm | - | 0 W/m² | - |
* Rain latest hour (hover to see other rain measurements)
** Current wind speed in m/s (hover to see current wind gust speed)